Content
SEND FEEDBACK

Daily
Averages
Monthly
Summary
Greece

IOANNINA, GREECE


Home > Europe > Greece
Elevation: 1588 feet     Latitude: 39 40N     Longitude: 020 51E

WEATHER
 
SELECT A DAY
Number of Records: 283,753;   Date Range: 7/1/96 - 8/10/14
 
SHARE

PRINT THIS DATA

[ ← Previous Day ]
WEATHER ALMANAC - OCTOBER 1, 2013
[ Next Day → ]
[ °C ]   °F
Weather ElementAverageHighLow
Temperature61.2 °F68 °F (2:20 pm)55.4 °F (11:50 pm)
Dewpoint57.5 °F60.8 °F (9:50 am)53.6 °F (9:50 pm)
Humidity88.3 %100 % (1:20 am)68 % (2:20 pm)
Barometer29.66 in29.74 in (9:50 pm)29.62 in (4:50 am)
Wind Speed3.3 mph9.2 mph (5:20 pm)
Weather ElementAverage
Visibility6.1 mi
Wind DirectionESE (103.9 °)

Weather ElementTotal
Precipitation---
Heating Degree Days3.3 (Base 65)
Growing Degree Days11.7 (Base 50)
Averaged from 38 records on October 1, 2013
WEATHER CONDITIONS BREAKOUT
WIND DIRECTION BREAKOUT
WEATHER BY HOUR - OCTOBER 1, 2013
[ °C ]   °F
Local TimeTemperatureDewpointHumidityBarometerVisibilityWind DirectionWind SpeedGust SpeedPrecipitationEventsConditions
12:50 AM60.8 °F59.0 °F94 %29.68 inCalm
1:20 AM59.0 °F59.0 °F100 %29.68 inCalm
1:50 AM60.8 °F59.0 °F94 %29.65 inVariable1.2 mph
2:20 AM59.0 °F59.0 °F100 %29.65 inCalm
2:50 AM59.0 °F57.2 °F94 %29.65 inCalm
3:20 AM59.0 °F57.2 °F94 %29.65 inVariable1.2 mph
3:50 AM59.0 °F59.0 °F100 %29.65 inVariable1.2 mph
4:20 AM59.0 °F59.0 °F100 %29.65 inVariable1.2 mph
4:50 AM59.0 °F57.2 °F94 %29.62 inVariable2.3 mph
5:20 AM59.0 °F59.0 °F100 %29.65 inVariable2.3 mphRainLight Rain
5:50 AM59.0 °F59.0 °F100 %29.65 inVariable3.5 mphRainLight Rain
6:20 AM59.0 °F59.0 °F100 %29.62 inVariable2.3 mphRainLight Rain
6:50 AM59.0 °F57.2 °F94 %29.62 inVariable2.3 mphRainLight Rain
7:20 AM59.0 °F59.0 °F100 %29.62 inVariable1.2 mph
7:50 AM59.0 °F57.2 °F94 %29.65 inVariable2.3 mph
8:20 AM59.0 °F57.2 °F94 %29.62 inVariable2.3 mph
8:50 AM59.0 °F57.2 °F94 %29.62 in6.2 miCalmMostly Cloudy
9:50 AM60.8 °F60.8 °F100 %29.62 in6.2 miCalmMostly Cloudy
10:50 AM64.4 °F60.8 °F88 %29.65 in6.2 miCalmScattered Clouds
11:50 AM66.2 °F59.0 °F78 %29.65 in5.0 miNW (320°)6.9 mphRainLight Rain
12:50 PM62.6 °F60.8 °F94 %29.68 in6.2 miNNW (340°)4.6 mphMostly Cloudy
1:50 PM66.2 °F59.0 °F78 %29.65 in6.2 miWest (260°)5.8 mphMostly Cloudy
2:20 PM68.0 °F57.2 °F68 %29.65 inSW (230°)6.9 mph
2:50 PM66.2 °F57.2 °F73 %29.65 inWest (260°)8.1 mph
3:20 PM64.4 °F57.2 °F77 %29.65 inWest (270°)8.1 mphRainLight Rain
3:50 PM64.4 °F57.2 °F77 %29.65 inWest (260°)8.1 mph
4:20 PM66.2 °F57.2 °F73 %29.65 inWest (270°)8.1 mph
4:50 PM66.2 °F57.2 °F73 %29.65 inWest (280°)6.9 mph
5:20 PM66.2 °F57.2 °F73 %29.65 inWSW (250°)9.2 mphRainLight Rain
5:50 PM64.4 °F57.2 °F77 %29.65 in6.2 miWNW (300°)8.1 mphScattered Clouds
6:50 PM62.6 °F55.4 °F77 %29.68 in6.2 miNW (310°)3.5 mphScattered Clouds
7:50 PM60.8 °F55.4 °F82 %29.71 in6.2 miWNW (300°)1.2 mphScattered Clouds
8:50 PM60.8 °F55.4 °F82 %29.71 in6.2 miWNW (290°)3.5 mphPartly Cloudy
9:50 PM59.0 °F53.6 °F82 %29.74 in6.2 miNorth (10°)3.5 mphScattered Clouds
10:20 PM57.2 °F55.4 °F94 %29.74 inVariable1.2 mph
10:50 PM59.0 °F53.6 °F82 %29.74 inVariable1.2 mph
11:20 PM57.2 °F53.6 °F88 %29.74 inVariable3.5 mph
11:50 PM55.4 °F53.6 °F94 %29.74 inVariable2.3 mph
Hourly data recorded from LGIO, located miles away from Ioannina, Greece







STORIES FROM OUR PARTNERS